Buckeye, AZ

2:47 AM MST on March 23, 2017 (GMT -0700)
Buckeye Municipal

Weather History for KBXK - May, 2013

Change the Weather History Date:

Monday, May 6, 2013

  Actual Average (KGYR) Record (KGYR)
Temperature  
Mean Temperature 73 °F -  
Max Temperature 84 °F 90 °F 105 °F (2000)
Min Temperature 62 °F 61 °F 55 °F (2007)
Cooling Degree Days 8    
Growing Degree Days 23 (Base 50)    
Moisture  
Dew Point 44 °F    
Average Humidity 36    
Maximum Humidity 49    
Minimum Humidity 21    
Precipitation  
Precipitation 0.00 in - - ()
Sea Level Pressure  
Sea Level Pressure 29.90 in    
Wind  
Wind Speed 7 mph (SSW)    
Max Wind Speed 13 mph    
Max Gust Speed 18 mph    
Visibility 10 miles    
Events      
Averages and records for this station are not official NWS values.
T = Trace of Precipitation, MM = Missing Value Source: NWS Daily Summary

Daily Weather History Graph

Daily Weather History Graph

Search for Another Location

Airport or City:

Trip Planner

Search our weather history database for the weather conditions in past years. The results will help you decide how hot, cold, wet, or windy it might be!

Date:

Astronomy

May. 06, 2013 Rise Set
Actual Time 5:37 AM MST 7:17 PM MST
Civil Twilight 5:10 AM MST 7:44 PM MST
Nautical Twilight 4:38 AM MST 8:16 PM MST
Astronomical Twilight 4:04 AM MST 8:50 PM MST
Moon 3:32 AM MST (5/6) 4:29 PM MST (5/6)
Length of Visible Light 14h 33m
Length of Day
13h 40m
Waning Crescent, 10% of the Moon is Illuminated
May 6
Waning Crescent
May 9
New
May 17
First Quarter
May 24
Full
May 31
Last Quarter

Hourly Weather History & Observations

Time (MST) Temp. Dew Point Humidity Pressure Visibility Wind Dir Wind Speed Gust Speed Precip Events Conditions
12:15 AM 69.8 °F 41.0 °F 35% 29.87 in 10.0 mi South 9.2 mph - N/A   Overcast
12:35 AM 69.8 °F 42.8 °F 38% 29.86 in 10.0 mi South 8.1 mph - N/A   Overcast
12:55 AM 68.0 °F 44.6 °F 43% 29.86 in 10.0 mi South 8.1 mph - N/A   Overcast
1:15 AM 69.8 °F 42.8 °F 38% 29.86 in 10.0 mi SSE 4.6 mph - N/A   Overcast
1:35 AM 69.8 °F 41.0 °F 35% 29.86 in 10.0 mi East 4.6 mph - N/A   Overcast
1:55 AM 68.0 °F 42.8 °F 40% 29.86 in 10.0 mi SE 4.6 mph - N/A   Overcast
2:15 AM 68.0 °F 44.6 °F 43% 29.86 in 10.0 mi SE 4.6 mph - N/A   Overcast
2:35 AM 68.0 °F 44.6 °F 43% 29.86 in 10.0 mi South 8.1 mph - N/A   Overcast
2:55 AM 68.0 °F 44.6 °F 43% 29.86 in 10.0 mi SSW 3.5 mph - N/A   Overcast
3:15 AM 66.2 °F 44.6 °F 46% 29.87 in 10.0 mi SSW 5.8 mph - N/A   Overcast
3:35 AM 68.0 °F 44.6 °F 43% 29.87 in 10.0 mi SSE 3.5 mph - N/A   Overcast
3:55 AM 66.2 °F 44.6 °F 46% 29.87 in 10.0 mi South 5.8 mph - N/A   Mostly Cloudy
4:15 AM 66.2 °F 44.6 °F 46% 29.87 in 10.0 mi SSW 6.9 mph - N/A   Scattered Clouds
4:35 AM 64.4 °F 44.6 °F 49% 29.87 in 10.0 mi SW 5.8 mph - N/A   Mostly Cloudy
4:55 AM 64.4 °F 44.6 °F 49% 29.88 in 10.0 mi Calm Calm - N/A   Mostly Cloudy
5:15 AM 64.4 °F 44.6 °F 49% 29.89 in 10.0 mi SW 4.6 mph - N/A   Mostly Cloudy
5:35 AM 64.4 °F 44.6 °F 49% 29.89 in 10.0 mi Calm Calm - N/A   Partly Cloudy
5:55 AM 62.6 °F 42.8 °F 48% 29.91 in 10.0 mi West 4.6 mph - N/A   Clear
6:15 AM 62.6 °F 41.0 °F 45% 29.92 in 10.0 mi West 3.5 mph - N/A   Clear
6:35 AM 64.4 °F 42.8 °F 45% 29.92 in 9.0 mi North 5.8 mph - N/A   Clear
6:55 AM 66.2 °F 44.6 °F 46% 29.93 in 8.0 mi NW 4.6 mph - N/A   Scattered Clouds
7:15 AM 66.2 °F 46.4 °F 49% 29.94 in 10.0 mi WNW 4.6 mph - N/A   Scattered Clouds
7:35 AM 68.0 °F 46.4 °F 46% 29.95 in 9.0 mi WNW 4.6 mph - N/A   Clear
7:55 AM 68.0 °F 46.4 °F 46% 29.95 in 10.0 mi West 4.6 mph - N/A   Clear
8:15 AM 68.0 °F 46.4 °F 46% 29.96 in 10.0 mi Calm Calm - N/A   Clear
8:35 AM 69.8 °F 46.4 °F 43% 29.96 in 10.0 mi Calm Calm - N/A   Clear
8:55 AM 71.6 °F 46.4 °F 41% 29.96 in 10.0 mi SW 4.6 mph - N/A   Clear
9:15 AM 71.6 °F 46.4 °F 41% 29.97 in 10.0 mi Calm Calm - N/A   Clear
9:35 AM 73.4 °F 48.2 °F 41% 29.97 in 10.0 mi SSW 6.9 mph - N/A   Clear
9:55 AM 73.4 °F 48.2 °F 41% 29.97 in 10.0 mi South 8.1 mph - N/A   Clear
10:15 AM 73.4 °F 48.2 °F 41% 29.97 in 10.0 mi WSW 5.8 mph - N/A   Mostly Cloudy
10:35 AM 73.4 °F 48.2 °F 41% 29.97 in 10.0 mi SW 9.2 mph - N/A   Mostly Cloudy
10:55 AM 75.2 °F 46.4 °F 36% 29.97 in 8.0 mi South 6.9 mph - N/A   Clear
11:15 AM 75.2 °F 48.2 °F 38% 29.97 in 10.0 mi South 8.1 mph - N/A   Clear
11:35 AM 77.0 °F 48.2 °F 36% 29.96 in 10.0 mi South 10.4 mph - N/A   Partly Cloudy
11:55 AM 77.0 °F 46.4 °F 34% 29.96 in 10.0 mi SSE 4.6 mph - N/A   Partly Cloudy
12:15 PM 78.8 °F 46.4 °F 32% 29.95 in 10.0 mi South 8.1 mph - N/A   Partly Cloudy
12:35 PM 78.8 °F 44.6 °F 30% 29.94 in 10.0 mi South 8.1 mph 16.1 mph N/A   Clear
12:55 PM 77.0 °F 46.4 °F 34% 29.94 in 10.0 mi South 6.9 mph - N/A   Partly Cloudy
1:15 PM 80.6 °F 44.6 °F 28% 29.93 in 9.0 mi South 9.2 mph 17.3 mph N/A   Clear
1:35 PM 80.6 °F 44.6 °F 28% 29.93 in 10.0 mi South 9.2 mph - N/A   Clear
1:55 PM 80.6 °F 44.6 °F 28% 29.92 in 10.0 mi SSW 6.9 mph 16.1 mph N/A   Clear
2:15 PM 78.8 °F 46.4 °F 32% 29.91 in 10.0 mi ESE 3.5 mph - N/A   Scattered Clouds
2:35 PM 80.6 °F 44.6 °F 28% 29.90 in 10.0 mi SSW 6.9 mph - N/A   Partly Cloudy
2:55 PM 82.4 °F 44.6 °F 26% 29.89 in 10.0 mi SW 11.5 mph 17.3 mph N/A   Partly Cloudy
3:15 PM 80.6 °F 44.6 °F 28% 29.88 in 10.0 mi SE 9.2 mph - N/A   Clear
3:55 PM 84.2 °F 42.8 °F 23% 29.87 in 10.0 mi SW 12.7 mph 16.1 mph N/A   Partly Cloudy
4:15 PM 82.4 °F 42.8 °F 25% 29.87 in 10.0 mi SSW 4.6 mph - N/A   Partly Cloudy
4:35 PM 82.4 °F 41.0 °F 23% 29.86 in 10.0 mi SSW 8.1 mph - N/A   Scattered Clouds
4:55 PM 82.4 °F 41.0 °F 23% 29.86 in 10.0 mi South 11.5 mph - N/A   Scattered Clouds
5:15 PM 82.4 °F 41.0 °F 23% 29.85 in 10.0 mi SW 8.1 mph - N/A   Partly Cloudy
5:35 PM 82.4 °F 41.0 °F 23% 29.85 in 10.0 mi WSW 11.5 mph - N/A   Partly Cloudy
5:55 PM 82.4 °F 41.0 °F 23% 29.85 in 10.0 mi SW 10.4 mph 18.4 mph N/A   Partly Cloudy
6:15 PM 82.4 °F 39.2 °F 21% 29.85 in 10.0 mi WSW 8.1 mph - N/A   Clear
6:35 PM 80.6 °F 39.2 °F 23% 29.85 in 10.0 mi WSW 9.2 mph - N/A   Clear
6:55 PM 80.6 °F 39.2 °F 23% 29.85 in 10.0 mi West 9.2 mph - N/A   Clear
7:15 PM 78.8 °F 39.2 °F 24% 29.85 in 10.0 mi WSW 6.9 mph - N/A   Clear
7:35 PM 77.0 °F 39.2 °F 26% 29.86 in 10.0 mi WSW 8.1 mph - N/A   Clear
7:55 PM 75.2 °F 39.2 °F 27% 29.86 in 10.0 mi West 8.1 mph - N/A   Clear
8:15 PM 75.2 °F 39.2 °F 27% 29.87 in 10.0 mi West 5.8 mph - N/A   Clear
8:35 PM 73.4 °F 39.2 °F 29% 29.87 in 10.0 mi WSW 5.8 mph - N/A   Clear
9:15 PM 71.6 °F 39.2 °F 31% 29.89 in 10.0 mi WSW 5.8 mph - N/A   Clear
9:35 PM 71.6 °F 39.2 °F 31% 29.89 in 10.0 mi WSW 6.9 mph - N/A   Partly Cloudy
9:55 PM 69.8 °F 42.8 °F 38% 29.90 in 10.0 mi SW 5.8 mph - N/A   Clear
10:15 PM 71.6 °F 44.6 °F 38% 29.90 in 10.0 mi South 8.1 mph - N/A   Clear
10:35 PM 69.8 °F 46.4 °F 43% 29.90 in 10.0 mi SSW 12.7 mph - N/A   Clear
10:55 PM 69.8 °F 46.4 °F 43% 29.90 in 10.0 mi South 10.4 mph - N/A   Clear
11:15 PM 69.8 °F 46.4 °F 43% 29.91 in 10.0 mi South 9.2 mph - N/A   Clear
11:35 PM 68.0 °F 46.4 °F 46% 29.91 in 10.0 mi South 8.1 mph - N/A   Partly Cloudy
11:55 PM 68.0 °F 44.6 °F 43% 29.91 in 10.0 mi SSW 11.5 mph - N/A   Clear